This demonstration page uses our WeatherBlox Daily Observations layout. Learn more.

Left ArrowRight Arrow

38.88101, -77.10428

Hourly Observations for September 30, 2021

Temp ( °F °C ) Dew Point ( °F °C ) Humidity (%) Winds ( mph kmh ) Pressure ( in mb ) Visibility ( mi km ) Precip ( " mm )
12:52 am 00:52 Partly Cloudy 59 15 51 10.6 75 75 SSW 3 6 30.10 1019 10 16 0.00 0.00
1:52 am 01:52 Mostly Clear 58 14.4 50 10 75 75 SSW 3 6 30.10 1019 10 16 0.00 0.00
2:52 am 02:52 Clear 58 14.4 51 10.6 78 78 Calm 30.10 1019 10 16 0.00 0.00
3:52 am 03:52 Clear 56 13.3 49 9.4 77 77 Calm 30.10 1019 10 16 0.00 0.00
4:52 am 04:52 Clear 57 13.9 50 10 78 78 Calm 30.11 1020 10 16 0.00 0.00
5:52 am 05:52 Clear 56 13.3 49 9.4 77 77 SW 3 6 30.11 1020 10 16 0.00 0.00
6:52 am 06:52 Clear 56 13.3 49 9.4 77 77 SSW 3 6 30.12 1020 10 16 0.00 0.00
7:52 am 07:52 Sunny 59 15 49 9.4 69 69 W 6 9 30.14 1021 10 16 0.00 0.00
8:52 am 08:52 Sunny 62 16.7 51 10.6 67 67 N 8 13 30.15 1021 10 16 0.00 0.00
9:52 am 09:52 Sunny 66 18.9 53 11.7 63 63 N 8 13 30.16 1021 10 16 0.00 0.00
10:52 am 10:52 Sunny 69 20.6 49 9.4 49 49 NW 10 17 30.15 1021 10 16 0.00 0.00
11:52 am 11:52 Mostly Sunny 72 22.2 48 8.9 43 43 NW 9 15 30.14 1021 10 16 0.00 0.00
12:52 pm 12:52 Partly Cloudy 73 22.8 47 8.3 40 40 NW 10 17 30.13 1020 10 16 0.00 0.00
1:52 pm 13:52 Partly Cloudy 75 23.9 48 8.9 39 39 NW 9 15 30.12 1020 10 16 0.00 0.00
2:52 pm 14:52 Partly Cloudy 75 23.9 48 8.9 39 39 NNW 13 20 30.10 1019 10 16 0.00 0.00
3:52 pm 15:52 Partly Cloudy 74 23.3 48 8.9 40 40 NW 7 11 30.10 1019 10 16 0.00 0.00
4:52 pm 16:52 Partly Cloudy 74 23.3 48 8.9 40 40 NNW 14 22 30.11 1020 10 16 0.00 0.00
5:52 pm 17:52 Mostly Sunny 73 22.8 48 8.9 41 41 NNW 12 19 30.13 1020 10 16 0.00 0.00
6:52 pm 18:52 Mostly Sunny 69 20.6 49 9.4 49 49 N 9 15 30.15 1021 10 16 0.00 0.00
7:52 pm 19:52 Mostly Clear 68 20 50 10 53 53 NNE 10 17 30.17 1022 10 16 0.00 0.00
8:52 pm 20:52 Mostly Clear 66 18.9 49 9.4 54 54 NNE 10 17 30.19 1023 10 16 0.00 0.00
9:52 pm 21:52 Mostly Clear 65 18.3 49 9.4 56 56 NE 7 11 30.21 1023 10 16 0.00 0.00
10:52 pm 22:52 Mostly Cloudy 64 17.8 49 9.4 58 58 Calm 30.21 1023 10 16 0.00 0.00
11:52 pm 23:52 Mostly Clear 63 17.2 50 10 63 63 Calm 30.22 1023 10 16 0.00 0.00

Powered by AerisWeather